SL-8 DEB, 2647

Orbit data source: Space-Track

SL-8 DEB, 2647 is space debris in LEO originally from a launch on Sat, 18 Sep 1965 UTC launched from the Tyuratam Missile And Space Complex (TTMTR). Debris objects in space refer to the collection of defunct objects orbiting the Earth. Examples of debris include non-operational satellites, rocket bodies, and fragments generated from explosions, collisions, or faulty payload assembly.

Loading next visibility...
SL-8 DEB details
Identifier
2647, 1965-073L
Orbit
LEO
Last TLE update22 hours ago
Origin
Flag of CISTsUKOS (CIS)
ManufacturerUnknown
MissionSpacecraft
Bus & MotorUnknown
MassUnknown
Launch date (UTC)
1965-09-18 (59 years ago)
Launch vehicleUnknown
Launch site
Tyuratam Missile And Space Complex (TTMTR)
Object type
Payload
Rocket body
Debris
Shape & HBRUnknown
Radar Cross SectionSmall (<0.1 m²)

Expand to show TLE details & history

TLE from 22 hours ago
0 SL-8 DEB
1 02647U 65073L   24355.74241392  .00000051  00000-0  97590-3 0  9990
2 02647  56.0626 198.5464 0190668  63.2323  10.5877 12.43591678 49021
Epoch: 2024-12-20T17:49Z
Definitive object data (Epoch: 2024-12-20T17:49:04.562Z)
Latitude53.11128°
Longitude-95.38353°
Altitude1,350.963 km
Speed7.255 km/s
True Right ascension17h 26m 45s
True Declination52° 57' 31"
Sunlit
Object was in daylight at TLE epoch
Visualization TLE readout
Latitude-54.55815°
Longitude89.208°
Altitude1,656.185 km
Speed6.98 km/s
Apparent Right ascension04h 22m 44s
Apparent Declination-49° 41' 53"
Sunlit
Object is in daylight
Visualization observer readout
Local Sidereal Time15:04:24
Azimuth228.188° WSW
Elevation-73.091°
Doppler factor1
Orbital elements
Apogee altitude1,641.281 km
Perigee altitude1,341.193 km
Semi-major axis7,869.374 km
Eccentricity0.0190668
Inclination56.0626°
RAAN198.5464°
Arg. of periapsis63.2323°
True anomaly10.99877°
Mean anomaly10.5877°
Eccentric anomaly10.79226°
Mean motion3.10909 °/min
BSTAR0.0009759
Orbital period115.79 mins
Loading maneuver chart data...
Loading historical data...
Loading historical data...
Loading historical data...
Loading historical data...
Loading historical data...
Loading historical data...
Loading historical data...

SL-8 DEB Visibility forecast

Observer location: undefined°, undefined

Span
Click to sort rows by Start time (UTC) header in descending order
Start Az.
Max El. time (UTC)
Max El. Az.
Max El.
End time (UTC)
End Az.
15 mins2024-12-21 16:45:01.370Z239.101° WSW2024-12-21 16:52:01.370Z305.307° NW42.353°2024-12-21 17:00:01.370Z41.885° NE
12 mins2024-12-21 18:49:01.370Z292.683° NW2024-12-21 18:55:01.370Z348.053° N25.977°2024-12-21 19:01:01.370Z39.992° NE
12 mins2024-12-21 20:53:01.370Z324.261° NNW2024-12-21 20:58:01.370Z9.876° NNE25.832°2024-12-21 21:05:01.370Z69.757° E
15 mins2024-12-21 22:54:01.370Z320.241° NNW2024-12-21 23:01:01.370Z43.056° NE41.959°2024-12-21 23:09:01.370Z119.385° SE
14 mins2024-12-22 00:55:01.370Z297.641° NW2024-12-22 01:02:01.370Z230.956° WSW31.66°2024-12-22 01:09:01.370Z175.795° S
9 mins2024-12-22 13:56:01.370Z149.024° SSE2024-12-22 14:00:01.370Z115.371° SE19.158°2024-12-22 14:05:01.370Z75.451° E
9 mins2024-12-22 15:53:01.370Z221.067° SW2024-12-22 16:00:01.370Z88.627° E44.912°2024-12-22 16:02:01.370Z48.545° ENE
|